QPF
0.00 0.00 0.00 0.00 0.00 0.00 0.00 0.00 0.00 0.00 0.00 0.00 0.00 0.00 0.00 0.00 0.00 0.00 0.00 0.00 0.00 0.00 0.00 0.00 0.00 0.00 0.00 0.00 0.00 0.00 0.00 0.00 0.00 0.00 0.00 0.00 0.00 0.00 0.00 0.00 0.00 0.00 0.00 0.00 0.00
0.00 0.00 0.00 0.00 0.00 0.00 0.00 0.00 0.00 0.00 0.00 0.00 0.00 0.00 0.00 0.00 0.00 0.00 0.00 0.00 0.00 0.00 0.00 0.00 0.00 0.00 0.00 0.00 0.00 0.00 0.00 0.00 0.00 0.00 0.00 0.00 0.00 0.00 0.00 0.00 0.00 0.00 0.00 0.00 0.00
0.00 0.00 0.00 0.00 0.00 0.00 0.00 0.00 0.00 0.00 0.00 0.00 0.00 0.00 0.00 0.00 0.00 0.00 0.00 0.00 0.00 0.00 0.00 0.00 0.00 0.00 0.00 0.00 0.00 0.00 0.00 0.00 0.00 0.00 0.00 0.00 0.00 0.00 0.00 0.00 0.00 0.00 0.00 0.00 0.00
0.00 0.00 0.00 0.00 0.00 0.00 0.00 0.00 0.00 0.00 0.00 0.00 0.00 0.00 0.00 0.00 0.00 0.00 0.00 0.00 0.00 0.00 0.00 0.00 0.00 0.00 0.00 0.00 0.00 0.00 0.00 0.00 0.00 0.00 0.00 0.00 0.00 0.00 0.00 0.00 0.00 0.00 0.00 0.00 0.00
0.00 0.00 0.00 0.00 0.00 0.00 0.00 0.00 0.00 0.00 0.00 0.00 0.00 0.00 0.00 0.00 0.00 0.00 0.00 0.00 0.00 0.00 0.00 0.00 0.00 0.00 0.00 0.00 0.00 0.00 0.00 0.00 0.00 0.00 0.00 0.00 0.00 0.00 0.00 0.00 0.00 0.00 0.00 0.00 0.00
0.00 0.00 0.00 0.00 0.00 0.00 0.00 0.00 0.00 0.00 0.00 0.00 0.00 0.00 0.00 0.00 0.00 0.00 0.00 0.00 0.00 0.00 0.00 0.00 0.00 0.00 0.00 0.00 0.00 0.00 0.00 0.00 0.00 0.00 0.00 0.00 0.00 0.00 0.00 0.00 0.00 0.00 0.00 0.00 0.00
0.00 0.00 0.00 0.00 0.00 0.00 0.00 0.00 0.00 0.00 0.00 0.00 0.00 0.00 0.00 0.00 0.00 0.00 0.00 0.00 0.00 0.00 0.00 0.00 0.00 0.00 0.00 0.00 0.00 0.00 0.00 0.00 0.00 0.00 0.00 0.00 0.00 0.00 0.00 0.00 0.00 0.00 0.00 0.00 0.00
0.00 0.00 0.00 0.00 0.00 0.00 0.00 0.00 0.00 0.00 0.00 0.00 0.00 0.00 0.00 0.00 0.00 0.00 0.00 0.00 0.00 0.00 0.00 0.00 0.00 0.00 0.00 0.00 0.00 0.00 0.00 0.00 0.00 0.00 0.00 0.00 0.00 0.00 0.00 0.00 0.00 0.00 0.00 0.00 0.00
0.00 0.00 0.00 0.00 0.00 0.00 0.00 0.00 0.00 0.00 0.00 0.00 0.00 0.00 0.00 0.00 0.00 0.00 0.00 0.00 0.00 0.00 0.00 0.00 0.00 0.00 0.00 0.00 0.00 0.00 0.00 0.00 0.00 0.00 0.00 0.00 0.00 0.00 0.00 0.00 0.00 0.00 0.00 0.00 0.00
0.00 0.00 0.00 0.00 0.00 0.00 0.00 0.00 0.00 0.00 0.00 0.00 0.00 0.00 0.00 0.00 0.00 0.00 0.00 0.00 0.00 0.00 0.00 0.00 0.00 0.00 0.00 0.00 0.00 0.00 0.00 0.00 0.00 0.00 0.00 0.00 0.00 0.00 0.00 0.00 0.00 0.00 0.00 0.00 0.00
0.00 0.00 0.00 0.00 0.00 0.00 0.00 0.00 0.00 0.00 0.00 0.00 0.00 0.00 0.00 0.00 0.00 0.00 0.00 0.00 0.00 0.00 0.00 0.00 0.00 0.00 0.00 0.00 0.00 0.00 0.00 0.00 0.00 0.00 0.00 0.00 0.00 0.00 0.00 0.00 0.00 0.00 0.00 0.00 0.00
0.00 0.00 0.00 0.00 0.00 0.00 0.00 0.00 0.00 0.00 0.00 0.00 0.00 0.00 0.00 0.00 0.00 0.00 0.00 0.00 0.00 0.00 0.00 0.00 0.00 0.00 0.00 0.00 0.00 0.00 0.00 0.00 0.00 0.00 0.00 0.00 0.00 0.00 0.00 0.00 0.00 0.00 0.00 0.00 0.00
0.00 0.00 0.00 0.00 0.00 0.00 0.00 0.00 0.00 0.00 0.00 0.00 0.00 0.00 0.00 0.00 0.00 0.00 0.00 0.00 0.00 0.00 0.00 0.00 0.00 0.00 0.00 0.00 0.00 0.00 0.00 0.00 0.00 0.00 0.00 0.00 0.00 0.00 0.00 0.00 0.00 0.00 0.00 0.00 0.00
0.00 0.00 0.00 0.00 0.00 0.00 0.00 0.00 0.00 0.00 0.00 0.00 0.00 0.00 0.00 0.00 0.00 0.00 0.00 0.00 0.00 0.00 0.00 0.00 0.00 0.00 0.00 0.00 0.00 0.00 0.00 0.00 0.00 0.00 0.00 0.00 0.00 0.00 0.00 0.00 0.00 0.00 0.00 0.00 0.00
0.00 0.00 0.00 0.00 0.00 0.00 0.00 0.00 0.00 0.00 0.00 0.00 0.00 0.00 0.00 0.00 0.00 0.00 0.00 0.00 0.00 0.00 0.00 0.00 0.00 0.00 0.00 0.00 0.00 0.00 0.00 0.00 0.00 0.00 0.00 0.00 0.00 0.00 0.00 0.00 0.00 0.00 0.00 0.00 0.00
0.00 0.00 0.00 0.00 0.00 0.00 0.00 0.00 0.00 0.00 0.00 0.00 0.00 0.00 0.00 0.00 0.00 0.00 0.00 0.00 0.00 0.00 0.00 0.00 0.00 0.00 0.00 0.00 0.00 0.00 0.00 0.00 0.00 0.00 0.00 0.00 0.00 0.00 0.00 0.00 0.00 0.00 0.00 0.00 0.00
0.00 0.00 0.00 0.00 0.00 0.00 0.00 0.00 0.00 0.00 0.00 0.00 0.00 0.00 0.00 0.00 0.00 0.00 0.00 0.00 0.00 0.00 0.00 0.00 0.00 0.00 0.00 0.00 0.00 0.00 0.00 0.00 0.00 0.00 0.00 0.00 0.00 0.00 0.00 0.00 0.00 0.00 0.00 0.00 0.00
0.00 0.00 0.00 0.00 0.00 0.00 0.00 0.00 0.00 0.00 0.00 0.00 0.00 0.00 0.00 0.00 0.00 0.00 0.00 0.00 0.00 0.00 0.00 0.00 0.00 0.00 0.00 0.00 0.00 0.00 0.00 0.00 0.00 0.00 0.00 0.00 0.00 0.00 0.00 0.00 0.00 0.00 0.00 0.00 0.00
0.00 0.00 0.00 0.00 0.00 0.00 0.00 0.00 0.00 0.00 0.00 0.00 0.00 0.00 0.00 0.00 0.00 0.00 0.00 0.00 0.00 0.00 0.00 0.00 0.00 0.00 0.00 0.00 0.00 0.00 0.00 0.00 0.00 0.00 0.00 0.00 0.00 0.00 0.00 0.00 0.00 0.00 0.00 0.00 0.00
0.00 0.00 0.00 0.00 0.00 0.00 0.00 0.00 0.00 0.00 0.00 0.00 0.00 0.00 0.00 0.00 0.00 0.00 0.00 0.00 0.00 0.00 0.00 0.00 0.00 0.00 0.00 0.00 0.00 0.00 0.00 0.00 0.00 0.00 0.00 0.00 0.00 0.00 0.00 0.00 0.00 0.00 0.00 0.00 0.00
0.00 0.00 0.00 0.00 0.00 0.00 0.00 0.00 0.00 0.00 0.00 0.00 0.00 0.00 0.00 0.00 0.00 0.00 0.00 0.00 0.00 0.00 0.00 0.00 0.00 0.00 0.00 0.00 0.00 0.00 0.00 0.00 0.00 0.00 0.00 0.00 0.00 0.00 0.00 0.00 0.00 0.00 0.00 0.00 0.00
0.00 0.00 0.00 0.00 0.00 0.00 0.00 0.00 0.00 0.00 0.00 0.00 0.00 0.00 0.00 0.00 0.00 0.00 0.00 0.00 0.00 0.00 0.00 0.00 0.00 0.00 0.00 0.00 0.00 0.00 0.00 0.00 0.00 0.00 0.00 0.00 0.00 0.00 0.00 0.00 0.00 0.00 0.00 0.00 0.00
0.00 0.00 0.00 0.00 0.00 0.00 0.00 0.00 0.00 0.00 0.00 0.00 0.00 0.00 0.00 0.00 0.00 0.00 0.00 0.00 0.00 0.00 0.00 0.00 0.00 0.00 0.00 0.00 0.00 0.01 0.01 0.00 0.00 0.00 0.00 0.00 0.00 0.00 0.00 0.00 0.00 0.00 0.00 0.00 0.00
0.00 0.00 0.00 0.00 0.00 0.00 0.00 0.00 0.00 0.00 0.00 0.00 0.00 0.00 0.00 0.00 0.00 0.00 0.00 0.00 0.00 0.00 0.00 0.00 0.00 0.00 0.00 0.00 0.00 0.00 0.00 0.00 0.01 0.00 0.00 0.00 0.00 0.00 0.00 0.00 0.00 0.00 0.00 0.00 0.00
0.00 0.00 0.00 0.00 0.00 0.00 0.00 0.00 0.00 0.00 0.00 0.00 0.00 0.00 0.00 0.00 0.00 0.00 0.00 0.00 0.00 0.00 0.00 0.00 0.00 0.00 0.00 0.00 0.00 0.00 0.00 0.00 0.01 0.01 0.00 0.00 0.00 0.00 0.00 0.00 0.00 0.01 0.00 0.00 0.00
0.00 0.00 0.00 0.00 0.00 0.00 0.00 0.00 0.00 0.00 0.00 0.00 0.00 0.00 0.00 0.00 0.00 0.00 0.00 0.00 0.00 0.00 0.00 0.00 0.00 0.00 0.00 0.00 0.00 0.00 0.01 0.00 0.00 0.00 0.00 0.00 0.00 0.00 0.00 0.00 0.00 0.00 0.00 0.00 0.00
0.00 0.00 0.00 0.00 0.00 0.00 0.00 0.00 0.00 0.00 0.00 0.00 0.00 0.00 0.00 0.00 0.00 0.00 0.00 0.00 0.00 0.00 0.00 0.00 0.00 0.00 0.00 0.00 0.00 0.00 0.00 0.00 0.01 0.01 0.00 0.00 0.00 0.00 0.00 0.00 0.01 0.02 0.03 0.02 0.01
MSLP
1019.03 1018.54 1018.10 1017.57 1017.03 1016.48 1015.91 1015.40 1015.04 1014.53 1014.02 1013.47 1012.95 1012.74 1012.58 1012.30 1012.27 1012.10 1010.25 1007.94 1008.19 1008.60 1008.93 1009.17 1009.52 1009.70 1010.06 1009.76 1009.40 1009.04 1007.78 1006.27 1005.25 1004.78 1004.33 1004.33 1004.37 1004.57 1004.93 1005.28 1005.82 1006.32 1006.84 1007.35 1008.18
1019.09 1018.57 1018.14 1017.63 1017.01 1016.38 1015.78 1015.29 1014.82 1014.27 1013.67 1013.14 1012.76 1012.62 1012.45 1012.14 1011.63 1009.96 1007.32 1007.52 1007.86 1008.29 1008.79 1008.71 1009.08 1009.50 1009.53 1009.09 1008.71 1008.37 1007.25 1005.69 1004.96 1004.36 1004.02 1003.76 1003.89 1003.91 1004.48 1004.75 1005.16 1005.82 1006.84 1007.84 1008.73
1019.20 1018.70 1018.18 1017.55 1016.86 1016.24 1015.60 1015.03 1014.43 1013.78 1013.34 1012.94 1012.46 1012.22 1012.02 1011.73 1010.51 1007.55 1006.96 1007.28 1007.67 1007.76 1008.06 1008.58 1008.92 1009.17 1009.03 1008.71 1008.03 1007.42 1006.30 1005.34 1004.65 1004.17 1003.71 1003.29 1003.07 1003.24 1003.41 1003.66 1003.77 1004.51 1006.04 1007.54 1008.74
1018.86 1018.43 1017.87 1017.27 1016.66 1016.01 1015.40 1014.80 1014.16 1013.62 1013.06 1012.54 1012.10 1011.89 1011.51 1011.07 1009.19 1007.00 1006.95 1007.29 1007.53 1007.62 1007.91 1008.15 1008.55 1008.47 1008.25 1007.98 1007.64 1007.19 1005.91 1005.22 1004.38 1003.95 1003.70 1003.25 1002.72 1002.73 1002.61 1001.63 1003.09 1003.71 1004.99 1006.66 1007.74
1019.02 1018.42 1017.77 1017.07 1016.30 1015.57 1014.81 1014.08 1013.63 1013.31 1012.82 1012.31 1012.01 1011.80 1011.10 1010.12 1007.85 1006.99 1007.15 1007.63 1008.00 1007.94 1007.67 1007.80 1008.05 1007.92 1007.50 1007.30 1007.12 1006.67 1005.44 1004.86 1004.39 1004.02 1003.61 1003.35 1002.78 1002.40 1001.96 1002.23 1003.21 1003.91 1005.13 1006.11 1007.02
1019.16 1018.52 1017.88 1017.08 1016.20 1015.36 1014.48 1013.73 1013.13 1012.54 1012.19 1011.90 1011.82 1011.67 1010.96 1009.24 1006.83 1007.00 1007.26 1007.90 1007.90 1007.93 1007.68 1007.69 1007.38 1007.41 1007.22 1006.95 1006.59 1005.55 1005.19 1004.56 1004.07 1003.68 1003.38 1002.97 1002.41 1002.41 1001.59 1001.79 1002.95 1004.00 1004.50 1004.95 1005.66
1018.86 1018.13 1017.42 1016.65 1015.77 1014.68 1013.61 1013.03 1012.76 1011.99 1011.57 1011.19 1011.33 1011.36 1010.21 1007.78 1007.17 1007.26 1007.37 1007.60 1007.76 1007.66 1007.53 1007.53 1007.41 1007.40 1007.07 1006.53 1006.19 1005.67 1005.16 1004.24 1003.58 1003.36 1003.01 1002.70 1002.12 1001.71 1001.38 1001.90 1002.41 1003.15 1003.33 1004.43 1005.19
1018.43 1017.72 1017.08 1016.38 1015.66 1014.58 1013.43 1012.64 1011.97 1011.58 1011.12 1010.85 1011.13 1010.82 1008.77 1007.14 1007.12 1007.04 1007.09 1007.18 1007.28 1007.25 1007.30 1007.24 1007.22 1007.24 1007.09 1006.56 1006.00 1005.51 1005.15 1004.04 1003.00 1003.21 1002.86 1003.02 1001.53 1001.12 1001.27 1001.85 1002.25 1002.47 1003.06 1003.79 1004.64
1018.64 1018.07 1017.35 1016.61 1015.66 1014.40 1013.14 1012.27 1011.47 1011.09 1011.05 1011.05 1011.06 1010.22 1007.87 1006.91 1006.72 1006.40 1006.52 1006.51 1006.71 1006.95 1007.07 1006.84 1006.93 1006.68 1006.76 1006.29 1005.84 1005.41 1004.47 1003.96 1003.34 1003.37 1003.09 1002.77 1001.93 1001.37 1001.64 1001.45 1001.56 1001.83 1002.43 1003.12 1004.27
1018.65 1017.96 1017.11 1016.23 1015.23 1013.97 1012.52 1011.36 1011.22 1011.14 1011.24 1010.99 1010.57 1010.10 1007.41 1006.80 1006.43 1006.37 1006.41 1006.30 1006.29 1006.47 1006.73 1006.65 1006.53 1006.17 1006.03 1005.61 1004.48 1004.32 1004.19 1004.04 1003.91 1003.28 1003.17 1002.57 1001.97 1001.32 1001.34 1001.47 1001.04 1001.16 1001.61 1001.98 1002.81
1018.39 1017.72 1016.83 1015.99 1014.96 1014.04 1012.68 1011.09 1011.50 1011.31 1010.73 1010.67 1010.16 1009.16 1007.50 1006.95 1006.72 1006.15 1005.82 1005.82 1006.03 1006.14 1005.96 1006.15 1005.81 1004.99 1005.00 1004.78 1004.34 1004.15 1004.24 1003.95 1004.18 1003.74 1003.29 1002.25 1001.68 1001.06 1000.34 1000.38 1000.11 1000.28 1000.55 1001.06 1001.01
1018.14 1017.53 1016.68 1015.93 1015.02 1013.95 1013.22 1013.12 1014.25 1014.43 1012.23 1010.15 1009.73 1009.04 1007.94 1007.55 1006.69 1005.78 1005.73 1005.53 1005.43 1005.11 1005.51 1005.77 1004.63 1005.01 1004.94 1004.58 1004.52 1004.20 1003.77 1003.63 1003.86 1003.58 1003.25 1002.16 1001.25 1000.58 999.95 999.79 999.66 999.67 999.74 1000.02 1001.00
1017.95 1017.41 1016.84 1015.83 1014.77 1014.18 1014.31 1014.24 1014.59 1014.20 1012.84 1009.86 1008.81 1008.17 1007.32 1007.34 1006.40 1005.55 1005.60 1005.28 1005.06 1004.86 1004.63 1004.46 1004.11 1004.36 1004.35 1004.26 1004.14 1003.57 1003.42 1003.51 1003.44 1003.27 1002.86 1002.37 1001.11 1000.27 999.54 999.16 998.86 998.63 998.75 999.41 999.90
1017.87 1017.44 1016.90 1015.90 1014.77 1015.13 1014.42 1014.55 1014.43 1014.08 1012.07 1009.57 1008.01 1007.16 1006.96 1006.72 1006.00 1005.15 1005.13 1004.99 1004.95 1004.59 1004.60 1004.23 1003.42 1003.57 1003.49 1003.31 1003.41 1002.79 1003.28 1003.19 1003.31 1003.26 1002.30 1002.47 1000.57 1000.09 999.23 998.76 998.22 997.78 997.96 998.37 998.99
1017.74 1017.29 1016.93 1016.71 1016.10 1015.26 1014.82 1014.63 1014.18 1013.82 1011.44 1009.32 1007.48 1006.68 1006.58 1006.58 1005.88 1004.85 1004.89 1004.93 1004.61 1004.43 1004.54 1003.16 1003.08 1002.95 1002.67 1002.34 1002.47 1002.13 1002.79 1002.90 1002.95 1002.87 1002.80 1001.84 1001.33 999.52 999.27 998.15 997.29 996.93 997.02 997.11 997.62
1017.39 1016.93 1016.77 1016.61 1016.47 1014.90 1014.59 1014.18 1013.85 1012.69 1010.59 1009.05 1007.97 1007.21 1006.61 1006.17 1005.70 1005.02 1004.74 1004.78 1004.76 1004.50 1004.29 1003.68 1003.33 1002.87 1002.03 1001.91 1002.08 1002.01 1002.58 1003.15 1003.41 1002.92 1002.38 1001.37 1001.06 999.32 998.49 997.65 996.85 996.55 996.59 996.77 996.79
1016.95 1016.49 1016.49 1016.14 1015.08 1014.67 1014.10 1013.30 1012.71 1011.54 1010.80 1009.68 1008.59 1008.07 1007.65 1006.68 1005.69 1005.39 1005.01 1004.68 1004.79 1004.55 1003.95 1003.24 1002.29 1002.26 1002.21 1001.83 1001.81 1002.16 1002.30 1002.50 1002.77 1002.47 1001.61 1001.37 1000.89 999.35 997.81 997.22 997.04 996.47 996.59 996.89 997.07
1016.56 1015.85 1015.65 1015.26 1014.81 1014.62 1013.68 1012.72 1011.84 1011.51 1010.62 1010.01 1009.19 1008.33 1007.75 1007.16 1006.34 1005.77 1005.40 1005.03 1005.02 1004.94 1004.10 1003.02 1001.90 1001.53 1001.21 1001.01 1000.92 1001.34 1001.45 1002.01 1002.05 1002.02 1001.64 1001.93 1000.00 998.38 997.72 997.25 997.15 997.16 996.96 996.98 997.05
1016.13 1015.47 1015.12 1014.50 1014.54 1014.54 1013.36 1012.16 1011.74 1011.27 1010.82 1010.20 1009.33 1008.65 1008.06 1007.62 1007.32 1006.37 1005.87 1005.60 1005.40 1005.17 1004.83 1003.52 1002.10 1001.27 1000.82 1000.46 1000.79 1001.46 1001.59 1001.89 1002.85 1003.04 1002.54 1000.90 999.58 998.62 997.76 997.31 997.37 997.67 997.71 997.30 996.77
1016.52 1015.59 1014.74 1014.57 1014.54 1013.86 1012.86 1012.30 1011.92 1011.37 1010.90 1010.54 1009.89 1009.44 1008.70 1008.13 1007.55 1006.79 1006.18 1005.89 1005.61 1005.33 1005.31 1004.22 1003.05 1001.49 1000.55 1000.45 1000.34 1000.77 1001.24 1001.70 1002.09 1002.45 1002.36 1000.64 999.42 998.66 997.82 997.55 997.70 998.17 998.50 997.90 997.47
1016.55 1015.29 1014.50 1014.44 1014.37 1013.27 1012.71 1012.51 1011.90 1011.12 1011.04 1010.68 1010.23 1009.84 1009.28 1008.80 1008.12 1007.33 1006.82 1006.14 1005.94 1005.36 1005.05 1004.54 1004.02 1001.98 1001.52 1000.94 1000.92 1001.12 1001.21 1001.37 1001.58 1002.40 1001.70 1000.26 998.89 998.68 998.71 998.89 999.02 999.14 999.26 998.90 998.39
1016.65 1015.28 1014.37 1014.02 1013.85 1014.07 1013.22 1012.88 1012.30 1011.21 1010.83 1010.62 1010.45 1010.07 1009.59 1009.14 1008.48 1007.85 1007.22 1006.75 1006.47 1006.27 1005.30 1005.02 1004.30 1002.78 1001.57 1001.31 1001.33 1001.18 1001.52 1001.38 1001.48 1002.12 1001.37 1000.70 998.56 998.93 999.30 999.63 999.99 999.94 999.83 999.84 999.51
1017.03 1015.95 1014.48 1014.08 1013.67 1013.66 1013.39 1012.76 1012.25 1011.43 1010.93 1010.58 1010.30 1010.12 1009.82 1009.38 1009.04 1008.24 1007.55 1006.98 1006.80 1006.42 1005.98 1005.46 1004.43 1003.28 1002.00 1001.83 1001.55 1001.72 1002.22 1002.12 1002.27 1002.01 1000.36 999.57 998.28 999.56 1000.17 1000.50 1000.89 1000.81 1000.48 1000.42 1000.63
1017.48 1016.26 1015.00 1014.54 1014.66 1013.95 1013.52 1012.88 1012.17 1011.66 1011.31 1011.06 1010.59 1010.18 1010.02 1009.57 1009.43 1008.69 1007.91 1007.28 1007.02 1006.61 1006.51 1006.05 1005.18 1004.30 1003.17 1002.74 1002.65 1002.52 1002.55 1002.53 1002.71 1002.26 1000.32 999.42 999.25 1000.12 1001.15 1001.64 1002.00 1001.85 1001.39 1001.00 1000.79
1017.82 1017.00 1016.75 1015.45 1015.01 1014.43 1014.08 1013.46 1012.70 1012.02 1011.63 1011.24 1010.80 1010.62 1010.53 1010.04 1009.47 1009.01 1008.47 1007.70 1007.01 1006.74 1006.53 1006.40 1005.56 1004.95 1003.83 1003.20 1003.09 1002.90 1002.76 1002.88 1003.09 1002.82 1002.01 1000.57 1000.78 1002.04 1002.63 1003.03 1003.49 1002.78 1002.40 1001.98 1001.63
1017.99 1017.46 1017.18 1016.33 1015.75 1014.97 1014.48 1013.66 1013.10 1012.71 1012.42 1011.51 1011.29 1011.01 1010.74 1010.23 1009.92 1009.51 1009.16 1008.66 1007.62 1006.96 1007.00 1006.96 1005.93 1005.32 1003.87 1003.30 1003.24 1002.85 1003.05 1003.24 1003.31 1002.67 1002.68 1002.63 1002.79 1003.70 1003.90 1004.25 1004.16 1003.52 1003.11 1002.89 1003.03
1018.53 1018.22 1017.42 1016.58 1015.83 1015.16 1014.24 1013.89 1013.54 1013.41 1012.57 1012.13 1011.93 1011.62 1010.90 1010.52 1010.45 1009.81 1009.43 1008.86 1008.47 1008.38 1007.88 1007.70 1006.56 1005.54 1004.02 1003.72 1003.27 1003.00 1003.41 1003.60 1003.73 1003.97 1004.17 1004.13 1004.27 1005.09 1004.67 1004.83 1004.84 1004.22 1003.69 1003.45 1003.57
Thickness
5762 5766 5770 5774 5779 5783 5788 5792 5795 5799 5803 5808 5812 5814 5816 5817 5817 5818 5826 5849 5849 5845 5842 5838 5832 5827 5824 5819 5824 5824 5809 5808 5818 5815 5823 5841 5830 5840 5842 5827 5831 5833 5828 5830 5829
5760 5764 5767 5771 5775 5781 5785 5789 5793 5797 5802 5806 5809 5811 5813 5814 5818 5825 5851 5849 5846 5844 5834 5829 5820 5821 5811 5816 5820 5811 5804 5817 5837 5840 5834 5844 5839 5842 5832 5827 5826 5831 5834 5830 5823
5756 5760 5763 5768 5773 5778 5783 5788 5793 5798 5801 5804 5808 5810 5811 5813 5819 5838 5851 5849 5845 5844 5839 5830 5824 5817 5807 5813 5817 5818 5811 5831 5838 5847 5851 5847 5846 5852 5840 5828 5842 5835 5834 5828 5820
5755 5758 5763 5767 5772 5777 5782 5787 5791 5796 5801 5804 5807 5808 5811 5815 5800 5843 5848 5845 5843 5841 5834 5824 5815 5807 5804 5800 5813 5801 5825 5832 5840 5848 5845 5842 5856 5845 5850 5861 5861 5857 5848 5834 5826
5751 5756 5761 5767 5774 5780 5787 5792 5795 5798 5801 5805 5807 5808 5815 5811 5819 5845 5843 5838 5834 5831 5825 5818 5808 5805 5798 5804 5806 5802 5822 5831 5839 5841 5843 5847 5845 5848 5853 5866 5862 5856 5843 5834 5832
5748 5754 5760 5766 5773 5780 5788 5793 5798 5802 5804 5806 5807 5807 5812 5798 5843 5841 5840 5833 5829 5824 5819 5816 5812 5812 5802 5803 5800 5819 5819 5826 5832 5836 5839 5837 5846 5847 5860 5871 5859 5849 5845 5844 5842
5750 5757 5763 5769 5775 5784 5793 5796 5798 5803 5806 5809 5808 5807 5809 5815 5837 5835 5834 5828 5827 5823 5812 5816 5814 5802 5803 5796 5812 5810 5798 5818 5830 5833 5831 5840 5833 5838 5864 5863 5857 5853 5855 5848 5844
5752 5758 5763 5769 5774 5782 5791 5797 5802 5804 5806 5808 5805 5806 5808 5833 5833 5832 5830 5824 5826 5824 5818 5818 5814 5800 5792 5803 5799 5792 5792 5786 5829 5827 5832 5824 5813 5847 5860 5853 5849 5854 5853 5850 5845
5748 5753 5759 5765 5772 5780 5790 5796 5801 5803 5803 5802 5802 5803 5806 5833 5823 5831 5829 5818 5819 5816 5813 5815 5805 5792 5788 5775 5771 5777 5771 5782 5799 5818 5818 5813 5805 5837 5846 5848 5848 5852 5853 5853 5843
5744 5750 5757 5764 5771 5779 5790 5799 5798 5798 5797 5797 5799 5792 5814 5813 5821 5823 5823 5819 5807 5803 5795 5791 5785 5776 5774 5770 5753 5769 5768 5775 5772 5805 5803 5800 5800 5828 5838 5834 5846 5851 5853 5857 5851
5741 5746 5754 5760 5768 5774 5785 5797 5792 5791 5793 5788 5789 5790 5803 5812 5817 5813 5817 5808 5801 5791 5774 5777 5764 5759 5768 5777 5782 5778 5766 5765 5772 5794 5786 5795 5796 5812 5837 5838 5845 5850 5855 5857 5864
5738 5742 5750 5756 5763 5771 5776 5774 5760 5756 5766 5785 5783 5784 5796 5798 5790 5803 5811 5791 5784 5773 5772 5760 5757 5766 5770 5771 5762 5762 5759 5760 5772 5785 5779 5791 5791 5811 5831 5832 5841 5848 5854 5859 5857
5734 5737 5743 5751 5759 5763 5760 5760 5753 5753 5754 5776 5784 5784 5792 5791 5785 5791 5794 5785 5773 5764 5764 5755 5764 5764 5755 5750 5744 5752 5751 5757 5761 5776 5781 5776 5779 5799 5824 5834 5842 5854 5861 5861 5860
5729 5731 5736 5744 5755 5748 5756 5750 5749 5749 5751 5765 5777 5783 5786 5785 5774 5795 5793 5781 5766 5757 5753 5752 5765 5751 5746 5740 5747 5738 5763 5766 5759 5754 5746 5768 5750 5785 5810 5816 5832 5848 5855 5860 5860
5724 5726 5729 5729 5735 5743 5745 5743 5744 5745 5730 5760 5768 5788 5780 5771 5774 5780 5788 5771 5755 5752 5746 5748 5745 5738 5732 5739 5749 5744 5764 5758 5757 5749 5743 5761 5743 5781 5796 5805 5830 5848 5856 5865 5869
5720 5723 5723 5725 5724 5736 5737 5740 5741 5736 5722 5741 5753 5750 5754 5760 5762 5769 5767 5768 5759 5743 5740 5739 5748 5741 5742 5746 5747 5761 5747 5739 5735 5742 5721 5756 5745 5763 5787 5807 5829 5845 5853 5859 5868
5717 5720 5720 5721 5734 5730 5733 5738 5727 5721 5731 5725 5729 5736 5732 5735 5746 5746 5741 5738 5727 5716 5719 5732 5737 5742 5741 5731 5744 5740 5733 5712 5710 5715 5722 5749 5738 5759 5803 5818 5822 5838 5847 5851 5856
5712 5718 5720 5720 5722 5722 5728 5728 5708 5710 5713 5725 5724 5725 5720 5725 5730 5729 5728 5721 5726 5718 5715 5713 5713 5734 5748 5743 5738 5737 5740 5713 5690 5707 5725 5729 5737 5769 5808 5820 5826 5828 5837 5843 5847
5708 5713 5715 5718 5716 5714 5722 5709 5703 5705 5712 5708 5713 5710 5711 5714 5709 5715 5713 5710 5716 5718 5701 5708 5719 5745 5750 5758 5751 5726 5722 5742 5701 5706 5702 5738 5758 5782 5802 5812 5816 5815 5822 5833 5846
5696 5704 5709 5707 5706 5711 5710 5690 5695 5702 5704 5702 5689 5696 5691 5697 5698 5701 5701 5711 5707 5718 5714 5714 5702 5740 5752 5756 5751 5743 5747 5721 5718 5681 5677 5723 5738 5749 5785 5800 5805 5805 5807 5822 5833
5688 5700 5701 5698 5698 5703 5692 5686 5688 5701 5696 5689 5686 5683 5687 5685 5688 5690 5690 5705 5709 5712 5716 5713 5706 5727 5734 5735 5732 5730 5726 5730 5734 5710 5702 5705 5736 5777 5776 5784 5786 5796 5800 5810 5821
5677 5688 5692 5692 5689 5669 5679 5676 5681 5689 5693 5687 5684 5681 5678 5680 5681 5681 5682 5690 5704 5702 5700 5708 5704 5704 5724 5738 5739 5737 5727 5730 5712 5693 5717 5717 5741 5776 5778 5781 5786 5790 5796 5803 5814
5664 5667 5681 5683 5675 5670 5668 5672 5674 5677 5679 5680 5677 5679 5679 5674 5668 5675 5681 5695 5695 5693 5690 5700 5696 5693 5709 5723 5732 5720 5717 5724 5719 5716 5724 5722 5744 5771 5769 5774 5777 5782 5791 5796 5796
5652 5665 5668 5665 5656 5661 5658 5662 5663 5672 5669 5670 5669 5673 5667 5666 5665 5665 5672 5684 5687 5687 5686 5689 5685 5687 5688 5697 5709 5701 5708 5711 5706 5696 5729 5737 5753 5761 5755 5757 5761 5767 5781 5790 5798
5636 5644 5637 5652 5647 5647 5645 5648 5651 5653 5661 5663 5660 5659 5653 5651 5657 5657 5664 5672 5684 5683 5684 5681 5671 5679 5696 5703 5702 5703 5706 5704 5698 5705 5700 5740 5737 5734 5738 5740 5745 5759 5768 5774 5777
5629 5631 5626 5631 5627 5634 5633 5640 5643 5643 5642 5650 5646 5651 5651 5648 5651 5647 5652 5656 5664 5678 5670 5672 5667 5672 5684 5700 5698 5698 5702 5703 5701 5707 5709 5719 5722 5722 5728 5734 5739 5749 5758 5761 5761
5604 5607 5616 5616 5621 5626 5634 5632 5634 5631 5641 5643 5640 5638 5643 5649 5648 5652 5655 5659 5660 5655 5656 5654 5662 5666 5668 5686 5691 5684 5691 5691 5694 5695 5691 5697 5707 5705 5715 5724 5729 5739 5749 5755 5757